Other Public Products
Issued by NWS Grand Forks, ND

Home | Current Version | Previous Version | Text Only | Print | Product List | Glossary Off
Versions: 1 2 3 4 5 6 7 8 9 10 11 12 13 14 15 16 17 18 19 20 21 22 23 24 25 26 27 28 29 30 31 32 33 34 35 36 37 38 39 40 41 42 43 44 45 46 47 48 49 50

288
FPUS83 KFGF 230010
OPUFGF
PRAIRIE TO PINES WEATHER ROUNDUP
NATIONAL WEATHER SERVICE EASTERN NORTH DAKOTA/GRAND FORKS ND
600 PM CST SUN JAN 22 2017

 **SATELLITE DATA USED TO AUGMENT SKY COVER AT AUTOMATED STATIONS**
 *****  WEATHER ACROSS EASTERN NORTH DAKOTA  *****

CITY           SKY/WX    TMP DP  RH WIND       PRES   REMARKS
GRAND FORKS    CLOUDY    33  29  85 SW3       29.76R
6HR MIN TEMP:  33; 6HR MAX TEMP:  35;

GRAND FORKS AF CLOUDY    33  30  89 W5        29.76R
GRAND CITY NWS NOT AVBL
BUXTON         NOT AVBL
DEVILS LAKE    CLOUDY    29  26  89 W16       29.75S WCI  17
6HR MIN TEMP:  28; 6HR MAX TEMP:  31;

FARGO          CLOUDY    34  31  88 NW8       29.78R FOG
6HR MIN TEMP:  34; 6HR MAX TEMP:  36;

WAHPETON ARPT  CLOUDY    32  30  93 W7        29.79R
$$

 *****  WEATHER ACROSS CENTRAL AND WESTERN NORTH DAKOTA  *****

CITY           SKY/WX    TMP DP  RH WIND       PRES   REMARKS
JAMESTOWN      CLOUDY    33  28  81 NW16      29.78R WCI  23
6HR MIN TEMP:  31; 6HR MAX TEMP:  33;

BISMARCK       CLOUDY    33  28  81 W12       29.84R WCI  24
6HR MIN TEMP:  32; 6HR MAX TEMP:  34;

MINOT          CLOUDY    32  29  88 W6        29.78R
6HR MIN TEMP:  32; 6HR MAX TEMP:  34;

MINOT AFB      CLOUDY    30  27  88 NW10      29.77R WCI  21
6HR MIN TEMP:  30; 6HR MAX TEMP:  32;

GARRISON         N/A     30  26  85 W14       29.79R WCI  19
6HR MIN TEMP:  30; 6HR MAX TEMP:  32;

WILLISTON      CLOUDY    30  24  78 W9        29.82R WCI  22
6HR MIN TEMP:  30; 6HR MAX TEMP:  31;

DICKINSON      CLOUDY    26  23  88 W16       29.79S WCI  14
6HR MIN TEMP:  25; 6HR MAX TEMP:  27; 6HR PCP: TRACE;

HETTINGER      CLOUDY    26  22  84 W17       29.84R WCI  13
6HR MIN TEMP:  26; 6HR MAX TEMP:  28;

$$

 *****  OTHER OBSERVATIONS NORTHEAST NORTH DAKOTA  *****

CITY           SKY/WX    TMP DP  RH WIND       PRES   REMARKS
WALHALLA       NOT AVBL
LANGDON        NOT AVBL
CAVALIER       CLOUDY    34  30  86 W7        29.74S
GRAFTON        CLOUDY    32  32 100 SW3       29.77R FOG
CANDO          NOT AVBL
FORT TOTTEN      N/A     29  28  96 NW7       29.95S WCI  22
ROLLA            N/A    N/A N/A N/A MISG        N/A
RUGBY            N/A     30  28  93 NW14      29.76S WCI  20
 ***** THE ABOVE OBSERVATIONS ARE NON NWS ARE NOT QUALITY
        CONTROLLED AND MAY MIS-REPORT RAIN FOR SNOW...
$$

 *****  OTHER OBSERVATIONS SOUTHEAST NORTH DAKOTA *****

CITY           SKY/WX    TMP DP  RH WIND       PRES   REMARKS
COOPERSTOWN    CLOUDY    30  28  93 W9        29.77R WCI  22
VALLEY CITY    CLOUDY    32  32 100 NW13      29.79S WCI  22
OAKES          NOT AVBL
GWINNER        CLOUDY    34  32  93 W10       29.79S
SHEYENNE NWR     N/A     32  31  94 NW6       29.95
BUFFALO        NOT AVBL
WYNDMERE       NOT AVBL
 ***** THE ABOVE OBSERVATIONS ARE NON NWS ARE NOT QUALITY
       CONTROLLED AND MAY MIS-REPORT RAIN FOR SNOW...
$$

  *****  WEATHER ACROSS NORTHERN MINNESOTA  *****

CITY           SKY/WX    TMP DP  RH WIND       PRES   REMARKS
FLAG ISLAND    FOG       32  32 100 SE3       29.72S VSB 1
WARROAD        FOG       34  28  80 CALM      29.74R VSB 3/4
ROSEAU         HAZE      36  30  80 CALM      29.73S VSB 1/4
HALLOCK        FOG       34  32  93 CALM      29.74S VSB 3/4
THF RVR FALLS  LGT SNOW  31  30  96 W6        29.75S FOG
6HR MIN TEMP:  31; 6HR MAX TEMP:  34; 6HR PCP: TRACE;

HALSTAD        NOT AVBL
FOSSTON        FOG       30  30 100 CALM      29.75R VSB 1/2
BAUDETTE       CLOUDY    34  33  96 CALM      29.72R
6HR MIN TEMP:  34; 6HR MAX TEMP:  37;

WASKISH        FOG       34  34 100 CALM      29.73S VSB 1
CROOKSTON      CLOUDY    30  30 100 W7        29.77R WCI  23
$$
  *****  WEATHER ACROSS CENTRAL AND WEST MINNESOTA  *****

CITY           SKY/WX    TMP DP  RH WIND       PRES   REMARKS
BEMIDJI        CLOUDY    33  33  99 W3        29.73S FOG
PARK RAPIDS    CLOUDY    33  31  92 NW6       29.72S FOG
6HR MIN TEMP:  33; 6HR MAX TEMP:  37;

WADENA         FOG       30  30 100 W6        29.75R VSB 1   WCI  24
DETROIT LAKES  CLOUDY    32  32 100 W5        29.76R FOG
MOORHEAD       CLOUDY    32  28  86 W8        29.79R WCI  25
FERGUS FALLS   CLOUDY    30  30 100 W5        29.81S FOG
ELBOW LAKE     CLOUDY    31  31 100 NW5       29.77S FOG
6HR MIN TEMP:  31; 6HR MAX TEMP:  32;

MORRIS MN      FAIR      34  32  93 W7        29.77S FOG
STAPLES        FOG       32  32 100 W8        29.75R VSB 3/4 WCI  25
WHEATON        CLOUDY    39  39 100 W8        29.81S
$$
  *****  WEATHER ELSEWHERE ACROSS MINNESOTA  *****

CITY           SKY/WX    TMP DP  RH WIND       PRES   REMARKS
DULUTH         CLOUDY    36  34  92 NW6       29.70S
6HR MIN TEMP:  35; 6HR MAX TEMP:  37; 6HR PCP: TRACE;

INTRNTL FALLS  CLOUDY    34  33  96 CALM      29.72R FOG
6HR MIN TEMP:  34; 6HR MAX TEMP:  39;

ELY            FOG       34  34 100 CALM      29.70R VSB 1/2
CLOQUET        CLOUDY    36  36 100 NW5       29.71R FOG
BRAINERD       CLOUDY    35  34  96 N3        29.73S
6HR MIN TEMP:  35; 6HR MAX TEMP:  37;

HIBBING        CLOUDY    33  33 100 CALM      29.71R FOG
6HR MIN TEMP:  33; 6HR MAX TEMP:  36;

ALEXANDRIA     CLOUDY    31  31 100 NW9       29.76S FOG     WCI  23
6HR MIN TEMP:  31; 6HR MAX TEMP:  33;

SAINT CLOUD    CLOUDY    35  35 100 W12       29.75R FOG
6HR MIN TEMP:  35; 6HR MAX TEMP:  38;

MINNEAPOLIS    CLOUDY    38  34  85 W8        29.76R
6HR MIN TEMP:  38; 6HR MAX TEMP:  40;

$$

  *****  WEATHER ACROSS SOUTH DAKOTA  *****

CITY           SKY/WX    TMP DP  RH WIND       PRES   REMARKS
SIOUX FALLS    CLOUDY    30  29  96 NW10      29.84R FOG     WCI  21
6HR MIN TEMP:  29; 6HR MAX TEMP:  33;

BROOKINGS      CLOUDY    29  27  92 NW15      29.81R WCI  18
WATERTOWN      CLOUDY    29  27  92 W13       29.79R WCI  19
6HR MIN TEMP:  27; 6HR MAX TEMP:  29;

HURON          CLOUDY    29  27  92 NW13      29.86R WCI  19
6HR MIN TEMP:  26; 6HR MAX TEMP:  30;

SISSETON         N/A     34  31  88 NW12      29.79R
ABERDEEN       CLOUDY    30  26  85 W13       29.83S WCI  20
6HR MIN TEMP:  29; 6HR MAX TEMP:  30;

MITCHELL       CLOUDY    31  27  85 W13       29.88R WCI  21
PIERRE         CLOUDY    29  25  85 NW8       29.88S WCI  21
6HR MIN TEMP:  26; 6HR MAX TEMP:  29;

MOBRIDGE       CLOUDY    31  25  78 NW15      29.84R WCI  20
RAPID CITY     FAIR      35  24  64 CALM      29.83S
6HR MIN TEMP:  34; 6HR MAX TEMP:  43;

$$

  *****  SOME WEATHER IN NEARBY STATES *****

CITY           SKY/WX    TMP DP  RH WIND       PRES   REMARKS
GLASGOW MT     CLOUDY    30  25  81 W9        29.81S WCI  22
6HR MIN TEMP:  30; 6HR MAX TEMP:  31;

GREAT FALLS MT FOG       25  23  92 NE13      29.71R VSB 1/2 WCI  14
6HR MIN TEMP:  25; 6HR MAX TEMP:  35;

CHEYENNE WY    FAIR      33   7  33 NW7       29.84F
6HR MIN TEMP:  33; 6HR MAX TEMP:  37;

SCOTTSBLUFF NE FAIR      37  18  46 W8        29.87S
6HR MIN TEMP:  37; 6HR MAX TEMP:  46;

OMAHA NE       FAIR      34  29  82 NW7       29.85R
6HR MIN TEMP:  33; 6HR MAX TEMP:  40;

DES MOINES IA  CLOUDY    38  35  89 NW12      29.78R
6HR MIN TEMP:  37; 6HR MAX TEMP:  39;

DAVENPORT IA   FAIR      36  34  92 NW7       29.69R
6HR MIN TEMP:  34; 6HR MAX TEMP:  42;

CHICAGO IL     CLOUDY    42  38  85 N9        29.65R
6HR MIN TEMP:  42; 6HR MAX TEMP:  46; 6HR PCP:  0.01;

EAU CLAIRE WI  CLOUDY    34  34 100 CALM      29.72R
6HR MIN TEMP:  34; 6HR MAX TEMP:  37;

LA CROSSE WI   CLOUDY    39  34  82 NW8       29.73R
6HR MIN TEMP:  39; 6HR MAX TEMP:  41;

$$

  *****  SOME NATIONAL WEATHER *****

CITY           SKY/WX    TMP DP  RH WIND       PRES   REMARKS
LA GUARDIA NY  CLOUDY    45  41  86 NE13      29.75R               C1F1C2F2C3F3C4F4C5F5C6F6C7F7C8F8C9F9CaFaCbFbCcFcCdFdCe!



USA.gov is the U.S. government's official web portal to all federal, state and local government web resources and services.